DW4273 Weather Reports


time (UTC)temp
C
wind
direction
speed
KPH
gust
KPH
rain 1hr
cm
rain 24hr
cm
rain mn
cm
humidity
%
barometer
mb
20260510190516 14 23 1.6 16.1 0.00 0.30 0.00 41 1015.7
20260510185537 14 0 9.7 17.7 0.00 0.30 0.00 39 1015.6
20260510184516 14 0 1.6 6.4 0.00 0.30 0.00 38 1015.4
20260510183516 14 338 3.2 14.5 0.00 0.30 0.00 42 1015.5
20260510182517 14 293 4.8 11.3 0.00 0.30 0.00 42 1015.4
20260510181516 14 23 4.8 16.1 0.00 0.30 0.00 42 1015.1
20260510180516 13 315 4.8 16.1 0.00 0.30 0.00 48 1015.2
20260510175536 13 0 8.0 14.5 0.00 0.30 0.00 42 1015.1
20260510175104 14 0 8.0 16.1 0.00 0.30 0.00 44 1015.2
20260510174516 13 23 3.2 11.3 0.00 0.30 0.00 44 1015.2
20260510173516 14 338 3.2 17.7 0.00 0.30 0.00 47 1015.3
20260510172516 13 338 3.2 12.9 0.00 0.30 0.00 46 1015.3
20260510171557 13 23 3.2 12.9 0.00 0.30 0.00 44 1015.4
20260510170516 13 0 6.4 19.3 0.00 0.30 0.00 49 1015.5
20260510165516 13 0 1.6 12.9 0.00 0.30 0.00 49 1015.4
20260510164516 13 270 1.6 12.9 0.00 0.30 0.00 49 1015.3
20260510163516 13 23 3.2 14.5 0.00 0.30 0.00 52 1015.2
20260510162517 13 315 4.8 12.9 0.00 0.30 0.00 52 1015.1
20260510161536 12 315 6.4 17.7 0.00 0.30 0.00 49 1014.9
20260510160516 12 23 6.4 16.1 0.00 0.30 0.00 51 1014.9
20260510155536 12 23 3.2 12.9 0.00 0.30 0.00 55 1015.0
20260510154516 12 45 1.6 9.7 0.00 0.30 0.00 55 1014.8
20260510153537 12 23 6.4 12.9 0.00 0.30 0.00 52 1014.7
20260510152517 12 0 1.6 9.7 0.00 0.30 0.00 56 1014.7
20260510151537 11 0 4.8 12.9 0.00 0.30 0.00 55 1014.8
20260510150517 11 0 8.0 19.3 0.00 0.30 0.00 58 1014.6
20260510145516 11 23 6.4 16.1 0.00 0.30 0.00 57 1014.3
20260510144517 11 68 9.7 22.5 0.00 0.30 0.00 58 1014.3
20260510143516 10 0 4.8 17.7 0.00 0.30 0.00 63 1014.1
20260510142537 10 0 6.4 16.1 0.00 0.30 0.00 62 1014.2
20260510141537 10 45 8.0 19.3 0.00 0.30 0.00 64 1014.0
20260510140517 10 0 8.0 16.1 0.00 0.30 0.00 63 1014.0
20260510135516 10 45 9.7 17.7 0.00 0.30 0.00 66 1013.9
20260510134516 10 0 1.6 8.0 0.00 0.30 0.00 70 1014.0
20260510133536 9 0 8.0 14.5 0.00 0.30 0.00 67 1013.8
20260510132516 9 45 8.0 14.5 0.00 0.30 0.00 69 1013.7
20260510131517 8 0 6.4 17.7 0.00 0.30 0.00 72 1013.4
20260510130517 8 23 8.0 14.5 0.00 0.30 0.00 75 1013.3
20260510125017 8 23 8.0 19.3 0.00 0.30 0.00 78 1013.1
20260510124017 8 23 6.4 17.7 0.00 0.30 0.00 80 1012.7
20260510123016 8 23 4.8 12.9 0.00 0.30 0.00 82 1012.6
20260510122016 8 23 3.2 11.3 0.00 0.30 0.00 83 1012.6
20260510121017 8 0 1.6 9.7 0.00 0.30 0.00 84 1012.2
20260510120017 8 0 4.8 11.3 0.00 0.30 0.00 84 1011.9
20260510115017 8 0 4.8 11.3 0.00 0.30 0.00 84 1011.9
20260510114017 8 338 4.8 12.9 0.00 0.30 0.00 85 1011.9
20260510113016 8 0 1.6 9.7 0.00 0.30 0.00 85 1011.6
20260510112016 8 0 1.6 9.7 0.00 0.30 0.00 85 1011.6
20260510111017 8 23 1.6 6.4 0.00 0.30 0.00 85 1011.4
20260510110017 8 0 3.2 11.3 0.00 0.30 0.00 85 1011.1
20260510105016 8 0.0 0.0 0.00 0.30 0.00 85 1011.0
20260510104017 8 0.0 1.6 0.00 0.30 0.00 85 1010.8
20260510103017 8 0.0 0.0 0.00 0.30 0.00 85 1010.5
20260510102037 7 0.0 0.0 0.00 0.30 0.00 85 1010.2
20260510101017 7 0.0 0.0 0.00 0.30 0.00 85 1010.2
20260510100017 7 0.0 0.0 0.00 0.30 0.00 84 1009.9
20260510095603 7 0.0 0.0 0.00 0.30 0.00 84 1009.9
20260510095017 7 0.0 0.0 0.00 0.30 0.00 84 1009.9
20260510094017 7 0.0 0.0 0.00 0.30 0.00 84 1009.9
20260510093037 7 0.0 0.0 0.00 0.30 0.00 84 1009.7
20260510092017 7 0.0 0.0 0.00 0.30 0.00 84 1009.6
20260510091017 7 0.0 0.0 0.00 0.30 0.00 84 1009.4
20260510090017 8 0.0 0.0 0.00 0.30 0.00 83 1009.0
20260510085017 8 0.0 0.0 0.00 0.30 0.00 83 1009.0
20260510084037 8 0.0 0.0 0.00 0.30 0.00 83 1008.8
20260510083017 8 0.0 0.0 0.00 0.30 0.00 82 1008.7
20260510082017 9 0.0 0.0 0.00 0.30 0.00 82 1008.6
20260510081037 9 0.0 0.0 0.00 0.30 0.00 79 1008.4
20260510080017 9 0.0 0.0 0.00 0.30 0.00 79 1008.5
20260510075017 10 0.0 0.0 0.00 0.30 0.00 79 1008.4
20260510074017 10 0.0 0.0 0.00 0.30 0.00 79 1008.4
20260510073137 10 23 1.6 9.7 0.00 0.30 0.00 78 1008.1
20260510072017 10 23 4.8 11.3 0.00 0.33 0.00 79 1008.1
20260510071017 10 45 3.2 11.3 0.00 0.33 0.00 84 1008.0
20260510070017 11 338 9.7 17.7 0.00 0.33 0.00 88 1007.7
20260510065529 12 338 3.2 8.0 0.00 0.33 0.00 87 1007.6
20260510065017 12 338 4.8 11.3 0.00 0.33 0.00 87 1007.5
20260510064017 12 315 1.6 11.3 0.00 0.38 0.00 86 1007.3
20260510063017 12 338 1.6 11.3 0.00 0.38 0.00 86 1007.1
20260510062017 13 293 3.2 11.3 0.00 0.38 0.00 87 1006.9
20260510061037 13 0.0 4.8 0.00 0.41 0.00 87 1006.7
20260510060017 13 0.0 4.8 0.00 0.41 0.00 87 1006.7
20260510055017 13 0.0 3.2 0.00 0.46 0.00 87 1006.7
20260510054057 13 248 6.4 16.1 0.00 0.51 0.00 88 1006.6
20260510053037 12 248 8.0 16.1 0.00 0.56 0.00 89 1006.4
20260510052017 12 225 8.0 16.1 0.00 0.56 0.00 90 1006.2
20260510051017 12 225 8.0 14.5 0.00 0.56 0.00 91 1006.1
20260510050017 12 225 6.4 16.1 0.00 0.61 0.00 91 1006.0
20260510045017 12 203 6.4 16.1 0.00 0.69 0.00 92 1005.8
20260510044037 12 0.0 6.4 0.00 0.71 0.00 91 1005.8
20260510043017 12 0.0 0.0 0.03 0.74 0.00 91 1005.6
20260510042017 12 0.0 1.6 0.03 0.76 0.00 90 1005.7
20260510041017 12 0.0 0.0 0.03 0.81 0.00 90 1005.6
20260510040057 12 0.0 0.0 0.03 0.84 0.84 89 1005.4
20260510035037 12 0.0 1.6 0.03 0.84 0.84 88 1005.5
20260510034017 12 203 1.6 9.7 0.03 0.86 0.84 88 1005.5
20260510033016 13 0.0 6.4 0.03 0.84 0.81 87 1005.7
20260510032016 13 225 3.2 9.7 0.03 0.84 0.81 87 1005.3
20260510031029 13 0.0 0.0 0.03 0.84 0.81 86 1005.0
20260510030017 13 158 3.2 9.7 0.03 0.84 0.81 86 1005.1
20260510025017 13 225 1.6 11.3 0.03 0.84 0.81 86 1005.5
20260510024017 13 248 1.6 8.0 0.03 0.84 0.81 86 1005.3
20260510023016 13 270 6.4 17.7 0.00 0.81 0.79 87 1005.8
20260510022017 13 248 4.8 9.7 0.00 0.84 0.79 88 1005.6
20260510021016 13 225 1.6 8.0 0.00 0.84 0.79 88 1005.2
20260510020037 13 225 1.6 6.4 0.00 0.84 0.79 88 1004.9
20260510015016 13 0.0 4.8 0.00 0.86 0.79 88 1004.6
20260510014037 13 0.0 0.0 0.00 0.89 0.79 87 1004.5
20260510013057 13 0.0 0.0 0.00 0.89 0.79 86 1004.4
20260510012017 13 0.0 0.0 0.00 0.89 0.79 85 1004.2
20260510011017 13 0.0 1.6 0.00 0.91 0.79 85 1004.0
20260510010016 13 0.0 6.4 0.00 0.91 0.79 85 1004.0
20260510005016 13 225 4.8 11.3 0.03 0.91 0.79 85 1004.0
20260510004017 13 225 8.0 12.9 0.03 0.94 0.79 84 1003.7
20260510003037 13 248 16.1 27.4 0.15 0.94 0.79 85 1003.9
20260510002016 13 248 14.5 29.0 0.25 0.94 0.79 86 1003.9
20260510001017 13 248 11.3 19.3 0.25 0.97 0.79 87 1004.0
20260510000117 13 248 8.0 17.7 0.25 0.99 0.79 87 1004.0
20260509235017 13 270 8.0 16.1 0.23 0.97 0.76 86 1004.3
20260509234017 13 270 9.7 27.4 0.23 0.99 0.76 84 1004.4
20260509233016 14 270 8.0 20.9 0.10 0.89 0.66 80 1004.0
20260509232017 16 315 14.5 30.6 0.00 0.81 0.53 74 1004.3
20260509231016 19 248 17.7 30.6 0.00 0.84 0.53 62 1003.6
20260509230017 20 225 12.9 25.7 0.00 0.89 0.53 56 1002.5
20260509225017 20 225 19.3 32.2 0.00 0.89 0.53 54 1002.3
20260509224017 20 203 20.9 35.4 0.00 0.91 0.53 53 1002.1
20260509223017 21 225 17.7 29.0 0.00 0.94 0.53 52 1002.1
20260509222017 21 225 17.7 37.0 0.00 0.94 0.53 50 1002.2
20260509221016 21 203 20.9 33.8 0.00 0.94 0.53 50 1002.2
20260509220017 21 203 19.3 32.2 0.00 0.97 0.53 51 1002.2
20260509215016 21 203 16.1 29.0 0.00 0.97 0.53 52 1002.4
20260509214017 21 203 17.7 32.2 0.00 0.97 0.53 52 1002.2
20260509213037 21 203 16.1 27.4 0.00 0.97 0.53 52 1002.2
20260509212017 21 203 17.7 43.5 0.00 0.97 0.53 53 1002.2
20260509211037 20 203 20.9 30.6 0.00 0.97 0.53 54 1002.3
20260509210017 20 203 20.9 35.4 0.00 0.97 0.53 54 1002.6
20260509205017 20 203 19.3 35.4 0.00 0.97 0.53 57 1002.8
20260509204016 20 225 20.9 32.2 0.00 0.97 0.53 54 1002.8
20260509203017 20 203 17.7 25.7 0.00 0.97 0.53 57 1002.9
20260509202017 20 203 16.1 27.4 0.00 0.97 0.53 57 1003.1
20260509201017 20 203 22.5 37.0 0.00 0.97 0.53 56 1003.2
20260509200017 20 203 19.3 33.8 0.00 0.97 0.53 57 1003.4
20260509195016 20 225 19.3 27.4 0.00 0.97 0.53 59 1003.7
20260509194017 20 203 17.7 35.4 0.00 0.99 0.53 59 1003.8
20260509193017 20 203 16.1 27.4 0.00 0.99 0.53 61 1003.7
20260509192057 20 225 19.3 30.6 0.00 1.02 0.53 59 1003.9
20260509191057 20 203 16.1 30.6 0.00 1.04 0.53 60 1003.9